Reading, PA

11:14 PM EDT on October 18, 2019 (GMT -0400)
Reading Regional-Spaatz

Weather History for KRDG - August, 2019

Change the Weather History Date:

Friday, August 23, 2019

  Actual Average Record
Temperature  
Mean Temperature 68 °F 72 °F  
Max Temperature 75 °F 83 °F 96 °F (1937)
Min Temperature 60 °F 62 °F 48 °F (1973)
Degree Days  
Heating Degree Days 0 0  
Month to date heating degree days 0 0  
Since 1 June heating degree days 16 25  
Since 1 July heating degree days 0 1  
Cooling Degree Days 2 7  
Month to date cooling degree days 285 197  
Year to date cooling degree days 1023 749  
Since 1 June cooling degree days 918 689  
Growing Degree Days 18 (Base 50)    
Moisture  
Dew Point 64 °F    
Average Humidity 86    
Maximum Humidity 100    
Minimum Humidity 54    
Precipitation  
Precipitation 0.28 in 0.13 in 1.81 in (1933)
Month to date precipitation 1.79 2.72  
Year to date precipitation 40.08 28.04  
Sea Level Pressure  
Sea Level Pressure 30.02 in    
Wind  
Wind Speed 3 mph ()    
Max Wind Speed 12 mph    
Max Gust Speed 14 mph    
Visibility 9.5 miles    
Events Rain    
T = Trace of Precipitation, MM = Missing Value Source: Averaged Metar Reports

Daily Weather History Graph

Daily Weather History Graph

Search for Another Location

Airport or City:

Astronomy

Aug. 23, 2019 Rise Set
Actual Time 6:22 AM EDT 7:50 PM EDT
Civil Twilight 5:53 AM EDT 8:18 PM EDT
Nautical Twilight 5:19 AM EDT 8:52 PM EDT
Astronomical Twilight 4:42 AM EDT 9:28 PM EDT
Moon No Moon Rise 1:58 PM EDT (8/23)
Length of Visible Light 14h 24m
Length of Day
13h 27m
Waning Gibbous, 50% of the Moon is Illuminated
Aug 23
Waning Gibbous
Aug 30
New
Sep 5
First Quarter
Sep 14
Full
Sep 21
Last Quarter

Hourly Weather History & Observations

Time (EDT) Temp. Dew Point Humidity Pressure Visibility Wind Dir Wind Speed Gust Speed Precip Events Conditions
12:54 AM 73.9 °F 72.0 °F 93% 29.95 in 10.0 mi West 4.6 mph - N/A   Overcast
1:54 AM 72.0 °F 72.0 °F 100% 29.94 in 10.0 mi NNW 4.6 mph - 0.08 in Rain Heavy Rain
2:21 AM 72.0 °F 72.0 °F 100% 29.93 in 10.0 mi Calm Calm - 0.01 in Rain Light Rain
2:54 AM 72.0 °F 72.0 °F 100% 29.93 in 10.0 mi Calm Calm - 0.01 in   Overcast
3:17 AM 72.0 °F 72.0 °F 100% 29.92 in 10.0 mi North 5.8 mph - N/A   Mostly Cloudy
3:54 AM 71.1 °F 70.0 °F 96% 29.94 in 10.0 mi NNE 5.8 mph - N/A   Scattered Clouds
4:54 AM 69.1 °F 64.9 °F 87% 29.96 in 10.0 mi North 6.9 mph - N/A   Overcast
5:54 AM 68.0 °F 64.9 °F 90% 29.99 in 10.0 mi North 6.9 mph - 0.00 in   Overcast
6:54 AM 66.9 °F 64.0 °F 90% 30.01 in 10.0 mi NNE 3.5 mph - 0.00 in Rain Light Rain
7:54 AM 66.0 °F 64.0 °F 93% 30.03 in 10.0 mi Calm Calm - 0.02 in Rain Light Rain
7:59 AM 66.0 °F 64.0 °F 93% 30.03 in 7.0 mi Calm Calm - 0.02 in Rain Light Rain
8:54 AM 64.0 °F 62.1 °F 93% 30.04 in 7.0 mi ENE 3.5 mph - 0.03 in Rain Light Rain
9:54 AM 64.9 °F 62.1 °F 90% 30.06 in 7.0 mi Calm Calm - 0.04 in Rain Rain
10:54 AM 64.9 °F 63.0 °F 93% 30.05 in 7.0 mi SE 4.6 mph - 0.10 in Rain Light Rain
11:54 AM 66.0 °F 64.0 °F 93% 30.04 in 7.0 mi Calm Calm - 0.00 in Rain Light Rain
12:17 PM 66.9 °F 63.0 °F 87% 30.04 in 10.0 mi Variable 3.5 mph - 0.00 in   Scattered Clouds
12:54 PM 68.0 °F 63.0 °F 84% 30.04 in 10.0 mi SW 3.5 mph - 0.00 in Rain Light Rain
12:59 PM 68.0 °F 63.0 °F 84% 30.04 in 10.0 mi SW 3.5 mph - 0.00 in   Mostly Cloudy
1:54 PM 70.0 °F 63.0 °F 78% 30.05 in 10.0 mi WSW 4.6 mph - 0.00 in   Mostly Cloudy
2:54 PM 72.0 °F 63.0 °F 73% 30.03 in 10.0 mi WSW 5.8 mph - N/A   Mostly Cloudy
3:54 PM 73.0 °F 64.0 °F 73% 30.03 in 10.0 mi West 4.6 mph - N/A   Mostly Cloudy
4:54 PM 73.0 °F 64.9 °F 76% 30.02 in 10.0 mi NW 5.8 mph - N/A   Clear
5:54 PM 75.0 °F 57.9 °F 55% 30.02 in 10.0 mi North 9.2 mph - N/A   Clear
6:54 PM 73.0 °F 59.0 °F 61% 30.03 in 10.0 mi North 6.9 mph - N/A   Partly Cloudy
7:54 PM 69.1 °F 59.0 °F 70% 30.04 in 10.0 mi NNW 4.6 mph - N/A   Clear
8:54 PM 66.9 °F 61.0 °F 81% 30.05 in 10.0 mi North 3.5 mph - N/A   Clear
9:54 PM 64.0 °F 60.1 °F 87% 30.08 in 10.0 mi North 3.5 mph - N/A   Clear
10:54 PM 64.0 °F 59.0 °F 84% 30.10 in 10.0 mi Calm Calm - N/A   Clear
11:54 PM 61.0 °F 61.0 °F 100% 30.12 in 10.0 mi Calm Calm - N/A   Clear